Weather History for George, South Africa

Change the Weather History Date:

Friday, September 27, 2013

  Actual Average Record
Temperature  
Mean Temperature 58 °F -  
Max Temperature 66 °F 67 °F 77 °F (2003)
Min Temperature 48 °F 50 °F 41 °F (2008)
Degree Days  
Heating Degree Days 7    
Growing Degree Days 8 (Base 50)    
Moisture  
Dew Point 44 °F    
Average Humidity 56    
Maximum Humidity 88    
Minimum Humidity 33    
Precipitation  
Precipitation 0.00 in - - ()
Sea Level Pressure  
Sea Level Pressure 29.81 in    
Wind  
Wind Speed 15 mph ()    
Max Wind Speed 29 mph    
Max Gust Speed 40 mph    
Visibility 8.3 miles    
Events      
Averages and records for this station are not official NWS values.
T = Trace of Precipitation, MM = Missing Value Source: Averaged Metar Reports

Daily Weather History Graph

Daily Weather History Graph

Search for Another Location

Airport:

Trip Planner

Search our weather history database for the weather conditions in past years. The results will help you decide how hot, cold, wet, or windy it might be!

Date:

Astronomy

Sep. 27, 2013 Rise Set
Actual Time 6:12 AM SAST 6:30 PM SAST
Civil Twilight 5:47 AM SAST 6:55 PM SAST
Nautical Twilight 5:18 AM SAST 7:24 PM SAST
Astronomical Twilight 4:49 AM SAST 7:54 PM SAST
Moon 1:09 AM SAST 11:41 AM SAST
Length of Visible Light 13h 07m
Length of Day
12h 17m
Waning Gibbous, 48% of the Moon is Illuminated
Sep 27
Waning Gibbous
Oct 5
New
Oct 12
First Quarter
Oct 19
Full
Oct 27
Last Quarter

Hourly Weather History & Observations

Time (SAST) Temp. Dew Point Humidity Pressure Visibility Wind Dir Wind Speed Gust Speed Precip Events Conditions
12:00 AM 55.4 °F 51.8 °F 88% 29.71 in - NNW 4.6 mph - N/A   Clear
1:00 AM 59.0 °F 50.0 °F 72% 29.68 in - NNW 8.1 mph - N/A   Clear
2:00 AM 62 °F 48 °F 49% 29.67 in 19 mi WNW 15.0 mph - -  
2:00 AM 62.6 °F 46.4 °F 55% 29.65 in - WNW 16.1 mph - N/A   Clear
3:00 AM 64.4 °F 42.8 °F 45% 29.65 in - West 11.5 mph - N/A   Clear
5:00 AM 66 °F 46 °F 38% 29.67 in 12 mi West 17.3 mph - -   Partly Cloudy
5:00 AM 66.2 °F 46.4 °F 49% 29.65 in 6.2 mi West 17.3 mph - N/A   Scattered Clouds
6:00 AM 64.4 °F 48.2 °F 56% 29.68 in 6.2 mi West 13.8 mph - N/A   Mostly Cloudy
7:00 AM 57.2 °F 50.0 °F 77% 29.74 in 6.2 mi WSW 23.0 mph - N/A   Mostly Cloudy
8:00 AM 58 °F 50 °F 66% 29.78 in 12 mi West 21.9 mph - -   Mostly Cloudy
8:00 AM 57.2 °F 50.0 °F 77% 29.77 in 6.2 mi West 21.9 mph - N/A   Mostly Cloudy
9:00 AM 59.0 °F 48.2 °F 67% 29.77 in 6.2 mi West 18.4 mph - N/A   Mostly Cloudy
10:00 AM 62.6 °F 46.4 °F 55% 29.80 in 6.2 mi West 20.7 mph - N/A   Mostly Cloudy
11:00 AM 67 °F 48 °F 39% 29.80 in 12 mi West 17.3 mph - -   Mostly Cloudy
11:00 AM 66.2 °F 48.2 °F 52% 29.77 in 6.2 mi West 17.3 mph - N/A   Mostly Cloudy
12:00 PM 62.6 °F 44.6 °F 52% 29.77 in 6.2 mi WSW 24.2 mph - N/A   Mostly Cloudy
1:00 PM 59.0 °F 44.6 °F 59% 29.80 in 6.2 mi SW 23.0 mph 34.5 mph N/A   Mostly Cloudy
2:00 PM 60 °F 43 °F 42% 29.82 in 12 mi SW 20.7 mph - -   Mostly Cloudy
2:00 PM 60.8 °F 42.8 °F 52% 29.80 in 6.2 mi WSW 20.7 mph 32.2 mph N/A   Mostly Cloudy
3:00 PM 57.2 °F 42.8 °F 59% 29.83 in 6.2 mi SW 28.8 mph - N/A   Mostly Cloudy
5:00 PM 59 °F 37 °F 33% 29.89 in 12 mi West 28.8 mph - -   Mostly Cloudy
5:00 PM 59.0 °F 35.6 °F 42% 29.89 in 6.2 mi West 28.8 mph 40.3 mph N/A   Mostly Cloudy
6:00 PM 55.4 °F 39.2 °F 54% 29.92 in 6.2 mi WSW 20.7 mph - N/A   Mostly Cloudy
7:00 PM 53.6 °F 35.6 °F 51% 29.95 in 6.2 mi West 23.0 mph 36.8 mph N/A   Scattered Clouds
8:00 PM 52 °F 35 °F 41% 29.99 in 12 mi West 18.4 mph - -   Scattered Clouds
8:00 PM 51.8 °F 35.6 °F 54% 29.98 in 6.2 mi West 19.6 mph 31.1 mph N/A   Partly Cloudy
9:00 PM 50.0 °F 37.4 °F 62% 30.01 in 6.2 mi NW 9.2 mph - N/A   Partly Cloudy
10:00 PM 50.0 °F 37.4 °F 62% 30.01 in - WNW 12.7 mph - N/A   Clear
11:00 PM 48.2 °F 35.6 °F 62% 30.01 in - WNW 11.5 mph - N/A   Clear